Regional Weather Roundup
Issued by NWS Grand Forks, ND

Home | Current Version | Previous Version | Graphics & Text | Print | Product List | Glossary On
Versions: 1 2 3 4 5 6 7 8 9 10 11 12 13 14 15 16 17 18 19 20 21 22 23 24 25 26 27 28 29 30 31 32 33 34 35 36 37 38 39 40 41 42 43 44 45 46 47 48 49 50
000
ASUS43 KFGF 211010
RWRFGF
PRAIRIE TO PINES  WEATHER ROUNDUP
NATIONAL WEATHER SERVICE EASTERN NORTH DAKOTA/GRAND FORKS ND
400 AM CST SUN DEC 21 2014

 **SATELLITE DATA USED TO AUGMENT SKY COVER AT AUTOMATED STATIONS**
 *****  WEATHER ACROSS EASTERN NORTH DAKOTA  *****

CITY           SKY/WX    TMP DP  RH WIND       PRES   REMARKS
GRAND FORKS    CLOUDY    30  28  92 S12       29.77F WCI  20
GRAND FRKS AFB MIX PCPN  29  29 100 S10       29.76F WCI  19
GRAND FRKS NWS   N/A     30 N/A N/A S12         N/A  WCI  21
DEVILS LAKE    PTCLDY    23  16  74 S8        29.67F WCI  14
FARGO          CLOUDY    32  29  88 S12       29.80F FOG     WCI  23
WAHPETON ARPT  CLOUDY    32  28  86 S12       29.84F WCI  23
$$

 ***** WEATHER ACROSS CENTRAL AND WESTERN NORTH DAKOTA  *****

CITY           SKY/WX    TMP DP  RH WIND       PRES   REMARKS
BISMARCK       CLEAR     12   9  87 E5        29.70F WCI   4
MINOT          CLEAR     24  19  81 SW10      29.63F WCI  14
JAMESTOWN      FOG       24  22  91 S9        29.72F VSB 1/2 WCI  14
MINOT AFB      CLEAR     20  20  99 SW5       29.63F WCI  14
GARRISON         N/A     20  18  92 SE3       29.65F
WILLISTON      CLEAR     18  15  88 CALM      29.59F
DICKINSON      MOCLDY    26  21  81 S8        29.60F WCI  18
HETTINGER      PTCLDY    25  21  85 CALM      29.66F
$$

 *****  OTHER AIRPORT OBSERVATIONS IN OUR AREA  *****

CITY           SKY/WX    TMP DP  RH WIND       PRES   REMARKS
WALHALLA         N/A     28  28 100 S6        29.71F WCI  22
GRAFTON AIRPOR NOT AVBL
VALLEY CITY AR CLOUDY    27  27 100 S16       29.74F FOG     WCI  14
CANDO          FAIR      23  21  93 SE5       29.67F WCI  17
CAVALIER APRT  CLOUDY    28  28 100 S12       29.73S FOG     WCI  18
GWINNER        CLOUDY    32  32 100 MISG      29.80F
ROLLA          FOG       25  25 100 MISG      29.64F VSB 3/4
 ***** THE ABOVE OBSERVATIONS ARE NON NWS ARE NOT QUALITY
       CONTROLLED AND MAY MIS-REPORT RAIN FOR SNOW...
$$

  *****  WEATHER ACROSS NORTHERN MINNESOTA  *****

CITY           SKY/WX    TMP DP  RH WIND       PRES   REMARKS
FLAG ISLAND    CLOUDY    28  27  93 SE21      29.80F FOG     WCI  15
WARROAD        LGT SNOW  30  27  86 S6        29.81F WCI  24
ROSEAU         LGT SNOW  30  27  86 S10       29.79F WCI  21
HALLOCK        LGT SNOW  30  30 100 CALM      29.74F
THF RVR FALLS  CLOUDY    30  28  93 S14       29.79F WCI  20
BAUDETTE       CLOUDY    29  26  89 S8        29.82F WCI  21
WASKISH        CLOUDY    28  27  93 S8        29.83F WCI  20
CROOKSTON      CLOUDY    30  30 100 S16       29.80F FOG     WCI  19
STEPHEN NDAWN    N/A     30  30 100 S16         N/A  WCI  19
GREENBUSH NDAW   N/A     30  30 100 S1          N/A
$$
  *****  WEATHER ACROSS CENTRAL AND WEST MINNESOTA  *****

CITY           SKY/WX    TMP DP  RH WIND       PRES   REMARKS
FOSSTON        CLOUDY    27  27 100 S14G23    29.81F WCI  15
BEMIDJI        CLOUDY    28  27  97 S12       29.82F FOG     WCI  18
PARK RAPIDS    CLOUDY    30  28  92 S15       29.84F FOG     WCI  19
ELBOW LAKE     CLOUDY    30  29  98 S18       29.84F FOG     WCI  17
WADENA         CLOUDY    28  28 100 S12G20    29.84F FOG     WCI  18
DETROIT LAKES  CLOUDY    30  30 100 S13       29.83F FOG     WCI  20
MOORHEAD       CLOUDY    32  32 100 S14G21    29.82F FOG     WCI  22
FERGUS FALLS   CLOUDY    30  28  93 S17       29.87F FOG     WCI  18
MORRIS MN      CLOUDY    30  30 100 S18       29.84F FOG     WCI  18
STAPLES        CLOUDY    28  28 100 S10G18    29.87F FOG     WCI  19
$$
  *****  WEATHER ELSEWHERE ACROSS MINNESOTA  *****

CITY           SKY/WX    TMP DP  RH WIND       PRES   REMARKS
DULUTH         CLOUDY    29  25  85 S17       29.95F WCI  17
INTRNTL FALLS  LGT SNOW  28  26  92 SE7       29.86F VSB 1   WCI  21
ELY            CLOUDY    28  27  93 S7        29.93F WCI  21
CLOQUET        CLOUDY    28  27  93 S8        29.95F FOG     WCI  20
WHEATON        CLOUDY    28  27  93 S9        29.86F FOG     WCI  20
BRAINERD       CLOUDY    29  28  96 S12G21    29.90F FOG     WCI  19
HIBBING        CLOUDY    29  25  85 S9G17     29.92F WCI  20
ALEXANDRIA     CLOUDY    30  28  92 S18       29.87F FOG     WCI  18
SAINT CLOUD    CLOUDY    32  29  88 SE15      29.92F FOG     WCI  22
MINNEAPOLIS    CLOUDY    32  29  88 SE9       29.98F FOG     WCI  24
$$

  *****  WEATHER ACROSS SOUTH DAKOTA  *****

CITY           SKY/WX    TMP DP  RH WIND       PRES   REMARKS
SIOUX FALLS    FOG       31  31 100 S12       29.86F VSB 1/2 WCI  22
BROOKINGS      NOT AVBL
WATERTOWN      CLOUDY    29  28  96 S12       29.80F FOG     WCI  19
HURON          CLOUDY    31  30  96 S9        29.81F FOG     WCI  23
SISSETON         N/A     30  29  96 SW9       29.82F WCI  22
ABERDEEN       CLOUDY    30  28  92 S13       29.80F FOG     WCI  20
MITCHELL       CLOUDY    32  31  96 S9        29.82F FOG     WCI  24
PIERRE         MOCLDY    22  19  89 E3        29.74F
MOBRIDGE       CLOUDY    27  24  89 E7        29.69F WCI  19
RAPID CITY     CLEAR     22  18  85 CALM      29.66F
$$

  *****  SOME WEATHER IN NEARBY STATES *****

CITY           SKY/WX    TMP DP  RH WIND       PRES   REMARKS
GLASGOW MT     CLEAR     23  18  81 E14       29.50F WCI  11
GREAT FALLS MT CLOUDY    44  29  55 S22G30    29.39F
CHEYENNE WY    MOCLDY    35  19  52 W18       29.80F WCI  24
SCOTTSBLUFF NE CLEAR     20  16  84 N3        29.78F
OMAHA NE       CLOUDY    36  34  92 SE15      29.96F FOG
DES MOINES IA  CLOUDY    39  35  86 S12       30.03F
DAVENPORT IA   CLOUDY    34  31  88 S13       30.15F FOG     WCI  25
CHICAGO IL     CLOUDY    32  27  81 S7        30.21F
EAU CLAIRE WI  CLOUDY    31  27  85 S6        30.05F
LA CROSSE WI   CLOUDY    33  29  85 SE7       30.09F FOG
$$

  *****  SOME NATIONAL WEATHER *****

CITY           SKY/WX    TMP DP  RH WIND       PRES   REMARKS
LA GUARDIA NY  CLOUDY    32  24  72 NW6       30.27F
RALEIGH NC     CLOUDY    38  34  85 NE3       30.26F FOG
ATLANTA GA     CLOUDY    47  43  86 E7        30.19S FOG
NEW ORLEANS LA CLOUDY    53  47  79 E7        30.12F
OKLAHOMA CITY  CLOUDY    43  38  82 S9        30.06F
ALBUQUERQUE NM PTCLDY    30  25  81 SE3       30.07F
SALT LAKE CITY LGT RAIN  43  33  68 S10       30.01S
LOS ANGELES CA MOCLDY    55  48  77 E6        30.14S
BOISE ID       LGT RAIN  41  38  89 SE10      29.86S
SEATTLE WA     MOCLDY    52  46  80 SW14G25   29.64R
$$

*** WEATHER ACROSS MANITOBA...SASKATCHEWAN AND ONTARIO ***
                ***ONTARIO***

CITY           SKY/WX    TMP DP  RH WIND       PRES   REMARKS
GERALDTON      FLURRIES  25  25 100 SE5       30.05F WCI  19
THUNDER BAY    NOT AVBL
SIOUX LOOKOUT  FRZ DRZL  28  27  93 S9        29.88F WCI  20
TORONTO        MOCLDY    27  21  80 CALM      30.28S
BIG TROUT LK   CLOUDY    25  25 100 S7        29.92S WCI  17
PICKLE LAKE    NOT AVBL
DRYDEN         CLOUDY    27  27 100 S15       29.85F FOG     WCI  15
KENORA         NOT AVBL
$$
                *** MANITOBA***

CITY           SKY/WX    TMP DP  RH WIND       PRES   REMARKS
BRANDON        CLOUDY    25  25 100 E3        29.65F FOG
DAUPHIN        CLOUDY    25  23  93 SE6       29.65F WCI  18
ISLAND LAKE    FLURRIES  25  23  93 SE7       29.78F WCI  17
PILOT MOUND      N/A     27  25  93 CALM        N/A
THE PAS        FOG       21  21 100 E5        29.65F VSB 3/4 WCI  15
THOMPSON       FLURRIES  18  16  93 SW5       29.74F WCI  11
WINNIPEG       NOT AVBL
LYNN LAKE      CLOUDY    14  12  92 S6        29.65F WCI   5
$$
                ***SASKATCHEWAN***

CITY           SKY/WX    TMP DP  RH WIND       PRES   REMARKS
ESTEVAN        NOT AVBL
KINDERSLEY     NOT AVBL
LLOYDMINSTER   SNOW      14  12  92 E12G17    29.39F VSB 3/8 WCI   0
PRINCE ALBERT  NOT AVBL
REGINA         PTCLDY    14  12  92 E9        29.54F WCI   2
YORKTON        CLOUDY    27  27 100 S6        29.57F FOG     WCI  20
N. BATTLEFORD  FRZ RAIN  18  18 100 SE13      29.47F VSB 5/8 WCI   4
LA RONGE       NOT AVBL
SASKATOON      NOT AVBL
SWIFT CURRENT  NOT AVBL
$$
NOTE: THESE ARE AUTOMATED STATIONS WITH LIMITED QUALITY CONTROL
      "FAIR" INDICATES FEW OR NO CLOUDS BELOW 12,000 FEET WITH NO
      SIGNIFICANT WEATHER AND/OR OBSTRUCTIONS TO VISIBILITY.
      SKY/WX - SKY CONDITION AND SIGNIFICANT WEATHER.
      TMP - AIR TEMPERATURE.    DP   - DEWPOINT TEMPERATURE.
      RH  - RELATIVE HUMIDITY.  PRES - PRESSURE.
      HX  - HEAT INDEX.         WCI  - WIND CHILL INDEX.
$



USA.gov is the U.S. government's official web portal to all federal, state and local government web resources and services.